Regional Weather Roundup
Issued by NWS

Home | Current Version | Previous Version | Graphics & Text | Print | Product List | Glossary Off
Versions: 1 2 3 4 5 6 7 8 9 10 11 12 13 14 15 16 17 18 19 20 21 22 23 24 25 26 27 28 29 30 31 32 33 34 35 36 37 38 39 40 41 42 43 44 45 46 47 48 49 50

000
ASUS45 KSLC 231610
RWRUT

UTAH REGIONAL WEATHER ROUNDUP
NATIONAL WEATHER SERVICE SALT LAKE CITY UT
1000 AM MDT SAT SEP 23 2017

UTZ001>011-023>025-231700-

NORTHERN UTAH

CITY           SKY/WX    TMP DP  RH WIND       PRES   REMARKS
BRIGHAM CITY   CLOUDY    42  36  78 CALM      29.97S
HILL AFB       PTSUNNY   44  35  71 NE6       29.95S
LOGAN          CLOUDY    40  37  89 W5        30.00S
OGDEN          PTSUNNY   43  37  79 W5        29.96R
SALT LAKE CITY PTSUNNY   47  39  74 N5        29.96S
TOOELE VALLEY  CLOUDY    46  39  76 CALM      29.97S
WENDOVER       MOSUNNY   48  36  63 VRB6      30.00R
HEBER CITY     CLOUDY    41  32  70 CALM      29.94F
WEST JORDAN    CLOUDY    43  42  97 CALM      29.97R

$$

UTZ011>015-024>027-231700-

CENTRAL/NORTHEAST UTAH

CITY           SKY/WX    TMP DP  RH WIND       PRES   REMARKS
PROVO AIRPORT  PTSUNNY   47  40  76 NW12      29.95S
MOAB/CANYONLAN MOSUNNY   57  30  35 NW5       29.81F
DELTA          PTSUNNY   41  36  81 CALM      29.96S
PRICE          SUNNY     54  31  41 NE14      29.86S
RICHFIELD      CLOUDY    43  37  81 NE7       29.96R
ROOSEVELT      PTSUNNY   50  34  53 E3        29.94S
VERNAL         CLOUDY    50  34  54 E7        29.92R

$$

UTZ013>016-019>022-027-231700-

SOUTHERN UTAH

CITY           SKY/WX    TMP DP  RH WIND       PRES   REMARKS
BRYCE CANYON   SUNNY     42  32  67 NE8       29.92F
CEDAR CITY     CLOUDY    39  36  89 NE8       29.94S WCI  33
MILFORD        CLOUDY    41  36  82 N10       29.95S
ST GEORGE      SUNNY     57  37  47 S6        29.86S
HANKSVILLE     SUNNY     54  30  40 CALM      29.85F
KANAB          SUNNY     54  30  40 N1        29.90S
BLANDING         N/A     53  46  76 SE10      29.95S

$$

REGIONAL REPORTS     COLORADO/ARIZONA

CITY           SKY/WX    TMP DP  RH WIND       PRES   REMARKS
CRAIG, CO      LGT RAIN  49  40  71 S18G30    29.95S
GRAND JUNCTION CLOUDY    53  49  86 SE21      29.87S
RIFLE, CO      RAIN      50  49  96 W3        29.96R FOG
MONTROSE, CO   LGT RAIN  49  49 100 CALM      29.98R
CORTEZ, CO     HVY RAIN  49  48  97 NW3       29.95R FOG
PAGE, AZ       SUNNY     58  25  28 N6        29.82S
GRAND CANYON   SUNNY     52  19  27 SW15      29.91R
KINGMAN, AZ    SUNNY     59  32  36 NE8       29.85R
FLAGSTAFF, AZ  SUNNY     51  24  34 SW14G28   29.92R

$$

REGIONAL REPORTS    NEVADA/IDAHO/WYOMING

CITY           SKY/WX    TMP DP  RH WIND       PRES   REMARKS
LAS VEGAS, NV  MOSUNNY   66  30  26 N15       29.85R
ELY, NY        CLOUDY    31  31 100 N8        30.00S WCI  23
ELKO, NV       CLOUDY    33  32  96 CALM      30.05R
POCATELLO, ID  PTSUNNY   39  36  89 N6        30.05S WCI  35
BURLEY, ID     MOSUNNY   42  36  79 W5        30.04S
FORT BRIDGER,  CLOUDY    39  39 100 E7        30.00S WCI  34
EVANSTON, WY   CLOUDY    35  33  92 N7        29.97S WCI  29
ROCK SPRINGS,  CLOUDY    39  36  89 NE5       29.98S
KEMMERER, WY     N/A     36  34  93 N8        29.98F WCI  29

$$



USA.gov is the U.S. government's official web portal to all federal, state and local government web resources and services.